Regional Weather Roundup
Issued by NWS Spokane, WA

Home | Current Version | Previous Version | Text Only | Print | Product List | Glossary On
Versions: 1 2 3 4 5 6 7 8 9 10 11 12 13 14 15 16 17 18 19 20 21 22 23 24 25 26 27 28 29 30 31 32 33 34 35 36 37 38 39 40 41 42 43 44 45 46 47 48 49 50
000
NZUS01 KOTX 202310
RWROTX
EASTERN WASHINGTON/NORTHERN IDAHO ROUNDUP
NATIONAL WEATHER SERVICE, SPOKANE WA
300 PM PST THU NOV 20 2014

Note: "fair" indicated few or no clouds below 12,000 feet with no
significant weather and/or obstructions to visibility.

...NORTHEAST WASHINGTON AND NORTHERN IDAHO PANHANDLE...

CITY           SKY/WX    TMP DP  RH WIND       PRES   REMARKS
SPOKANE INTL   MOCLDY    33  28  81 E5        30.01S FOG     WCI  29
SPOKANE DOWNTO CLOUDY    34  28  79 CALM      30.04F HAZE
COEUR D ALENE  CLOUDY    32  28  86 CALM      30.02S
DEER PARK      CLOUDY    32  28  85 CALM      30.03S FOG
SANDPOINT      CLOUDY    32  32 100 S3        30.03S

...SOUTHEAST WASHINGTON AND SOUTHERN IDAHO PANHANDLE...

CITY           SKY/WX    TMP DP  RH WIND       PRES   REMARKS
WALLA WALLA    CLOUDY    36  29  75 CALM      30.05F HAZE
PULLMAN/MOSCOW CLOUDY    39  35  86 E10       30.02F
LEWISTON       PTCLDY    44  36  73 NE6       30.04S
LOWELL           N/A     38  32  79 CALM      30.09F

...COLUMBIA BASIN...

CITY           SKY/WX    TMP DP  RH WIND       PRES   REMARKS
EPHRATA        PTCLDY    36  27  69 SE3       30.05S HAZE
MOSES LAKE     PTCLDY    34  27  75 S3        30.06F HAZE
TRI CITIES     CLOUDY    34  31  88 NW6       30.10F FOG     WCI  29
HERMISTON      PTSUNNY   34  29  82 CALM      30.08S HAZE
PENDLETON      FOG       31  30  96 CALM      30.03S VSB 1/2

...EAST SLOPES CASCADES...

CITY           SKY/WX    TMP DP  RH WIND       PRES   REMARKS
THE DALLES     PTSUNNY   38  27  64 CALM      30.08F
YAKIMA         CLOUDY    38  26  62 E3        30.05S HAZE
ELLENSBURG     PTSUNNY   41  26  55 W3        30.00S
WENATCHEE      CLOUDY    34  25  69 E12       30.04S HAZE    WCI  25
OMAK           PTCLDY    40  25  55 S8        30.01F

...SOUTHERN BRITISH COLUMBIA...

CITY           SKY/WX    TMP DP  RH WIND       PRES   REMARKS
PENTICTON      PTCLDY    43  25  49 S16G25    29.97S
CRANBROOK      CLOUDY    21  16  79 NE2       29.96S

...WESTERN MONTANA...

CITY           SKY/WX    TMP DP  RH WIND       PRES   REMARKS
MISSOULA       CLOUDY    31  24  75 CALM      30.02R

...NEIGHBORING CITIES...

CITY           SKY/WX    TMP DP  RH WIND       PRES   REMARKS
SEATTLE        CLOUDY    52  45  77 CALM      29.96S
CALGARY        MOCLDY    48  25  40 W16G24    29.60S



USA.gov is the U.S. government's official web portal to all federal, state and local government web resources and services.